Time,TemperatureF,DewpointF,PressureIn,WindDirection,WindDirectionDegrees,WindSpeedMPH,WindSpeedGustMPH,Humidity,HourlyPrecipIn,Conditions,Clouds,dailyrainin,SoftwareType,DateUTC
2013-06-10 00:01:00,65.3,59.3,29.80,SE,135,0.0,0.4,81,0.00,,,0.00,WUHU21623XXSP,2013-06-10 05:01:00,
2013-06-10 00:06:00,65.3,59.3,29.80,SSE,157,0.0,0.7,81,0.00,,,0.00,WUHU21623XXSP,2013-06-10 05:06:00,
2013-06-10 00:11:00,65.1,59.5,29.81,ESE,112,4.7,4.7,82,0.00,,,0.00,WUHU21623XXSP,2013-06-10 05:11:00,
2013-06-10 00:16:00,65.1,59.5,29.81,East,90,5.4,5.4,82,0.00,,,0.00,WUHU21623XXSP,2013-06-10 05:16:00,
2013-06-10 00:21:00,65.1,59.5,29.81,SE,135,1.3,5.4,82,0.00,,,0.00,WUHU21623XXSP,2013-06-10 05:21:00,
2013-06-10 00:26:00,64.9,59.3,29.81,SSE,157,0.4,5.4,82,0.00,,,0.00,WUHU21623XXSP,2013-06-10 05:26:00,
2013-06-10 00:31:00,64.9,59.6,29.80,SE,135,0.0,2.9,83,0.00,,,0.00,WUHU21623XXSP,2013-06-10 05:31:00,
2013-06-10 00:36:00,64.9,59.6,29.80,SE,135,2.5,2.9,83,0.00,,,0.00,WUHU21623XXSP,2013-06-10 05:36:00,
2013-06-10 00:41:00,64.9,59.6,29.80,East,90,1.3,2.5,83,0.00,,,0.00,WUHU21623XXSP,2013-06-10 05:41:00,
2013-06-10 00:46:00,64.9,59.6,29.80,SE,135,0.0,1.6,83,0.00,,,0.00,WUHU21623XXSP,2013-06-10 05:46:00,
2013-06-10 00:52:00,64.9,59.6,29.80,SE,135,0.4,1.6,83,0.00,,,0.00,WUHU21623XXSP,2013-06-10 05:52:00,
2013-06-10 00:57:00,64.8,59.5,29.79,ESE,112,0.0,0.4,83,0.00,,,0.00,WUHU21623XXSP,2013-06-10 05:57:00,
2013-06-10 01:02:00,64.8,59.5,29.79,ESE,112,0.2,2.2,83,0.00,,,0.00,WUHU21623XXSP,2013-06-10 06:02:00,
2013-06-10 01:07:00,64.8,59.5,29.79,ESE,112,0.2,2.2,83,0.00,,,0.00,WUHU21623XXSP,2013-06-10 06:07:00,
2013-06-10 01:12:00,64.6,59.3,29.78,ESE,112,0.0,0.2,83,0.00,,,0.00,WUHU21623XXSP,2013-06-10 06:12:00,
2013-06-10 01:17:00,64.2,58.9,29.78,East,90,2.9,2.9,83,0.00,,,0.00,WUHU21623XXSP,2013-06-10 06:17:00,
2013-06-10 01:22:00,64.0,58.8,29.78,SE,135,0.0,2.9,83,0.00,,,0.00,WUHU21623XXSP,2013-06-10 06:22:00,
2013-06-10 01:27:00,64.0,58.8,29.78,ESE,112,0.0,0.0,83,0.00,,,0.00,WUHU21623XXSP,2013-06-10 06:27:00,
2013-06-10 01:32:00,63.9,58.8,29.78,ESE,112,0.0,0.0,83,0.00,,,0.00,WUHU21623XXSP,2013-06-10 06:32:00,
2013-06-10 01:37:00,63.9,58.6,29.78,ESE,112,0.0,0.0,83,0.00,,,0.00,WUHU21623XXSP,2013-06-10 06:37:00,
2013-06-10 01:42:00,63.9,58.6,29.78,SE,135,0.0,0.0,83,0.00,,,0.00,WUHU21623XXSP,2013-06-10 06:42:00,
2013-06-10 01:47:00,63.7,58.4,29.78,SE,135,0.0,0.0,83,0.00,,,0.00,WUHU21623XXSP,2013-06-10 06:47:00,
2013-06-10 01:52:00,63.5,58.2,29.77,ESE,112,0.0,0.0,83,0.00,,,0.00,WUHU21623XXSP,2013-06-10 06:52:00,
2013-06-10 01:57:00,63.3,58.0,29.77,ESE,112,0.0,0.0,83,0.00,,,0.00,WUHU21623XXSP,2013-06-10 06:57:00,
2013-06-10 02:02:00,63.3,58.0,29.77,ESE,112,0.0,0.0,83,0.00,,,0.00,WUHU21623XXSP,2013-06-10 07:02:00,
2013-06-10 02:07:00,63.1,57.9,29.77,ESE,112,0.0,0.0,83,0.00,,,0.00,WUHU21623XXSP,2013-06-10 07:07:00,
2013-06-10 02:12:00,63.0,57.7,29.77,ESE,112,0.0,0.0,83,0.00,,,0.00,WUHU21623XXSP,2013-06-10 07:12:00,
2013-06-10 02:17:00,63.0,57.7,29.77,ESE,112,0.0,0.0,83,0.00,,,0.00,WUHU21623XXSP,2013-06-10 07:17:00,
2013-06-10 02:22:00,62.8,57.5,29.77,ESE,112,0.0,0.0,83,0.00,,,0.00,WUHU21623XXSP,2013-06-10 07:22:00,
2013-06-10 02:27:00,62.8,57.5,29.77,ESE,112,0.0,0.0,83,0.00,,,0.00,WUHU21623XXSP,2013-06-10 07:27:00,
2013-06-10 02:32:00,62.4,57.1,29.77,ESE,112,0.0,0.0,83,0.00,,,0.00,WUHU21623XXSP,2013-06-10 07:32:00,
2013-06-10 02:37:00,62.2,57.0,29.77,ESE,112,0.0,0.0,83,0.00,,,0.00,WUHU21623XXSP,2013-06-10 07:37:00,
2013-06-10 02:42:00,62.2,57.0,29.77,ESE,112,0.0,0.0,83,0.00,,,0.00,WUHU21623XXSP,2013-06-10 07:42:00,
2013-06-10 02:47:00,62.1,56.8,29.77,ESE,112,0.0,0.0,83,0.00,,,0.00,WUHU21623XXSP,2013-06-10 07:47:00,
2013-06-10 02:52:00,61.7,56.5,29.76,ESE,112,0.0,0.0,83,0.00,,,0.00,WUHU21623XXSP,2013-06-10 07:52:00,
2013-06-10 02:57:00,61.7,56.5,29.76,ESE,112,0.0,0.0,83,0.00,,,0.00,WUHU21623XXSP,2013-06-10 07:57:00,
2013-06-10 03:02:00,61.5,56.3,29.76,ESE,112,0.0,0.0,83,0.00,,,0.00,WUHU21623XXSP,2013-06-10 08:02:00,
2013-06-10 03:07:00,61.5,56.6,29.75,ESE,112,0.0,0.0,84,0.00,,,0.00,WUHU21623XXSP,2013-06-10 08:07:00,
2013-06-10 03:12:00,61.3,56.5,29.75,ESE,112,0.0,0.0,84,0.00,,,0.00,WUHU21623XXSP,2013-06-10 08:12:00,
2013-06-10 03:17:00,61.3,56.5,29.76,ESE,112,0.0,0.0,84,0.00,,,0.00,WUHU21623XXSP,2013-06-10 08:17:00,
2013-06-10 03:22:00,61.2,56.3,29.75,ESE,112,0.0,0.0,84,0.00,,,0.00,WUHU21623XXSP,2013-06-10 08:22:00,
2013-06-10 03:27:00,61.0,56.1,29.76,ESE,112,0.0,0.0,84,0.00,,,0.00,WUHU21623XXSP,2013-06-10 08:27:00,
2013-06-10 03:32:00,61.0,56.1,29.75,ESE,112,0.0,0.0,84,0.00,,,0.00,WUHU21623XXSP,2013-06-10 08:32:00,
2013-06-10 03:37:00,61.0,56.1,29.75,ESE,112,0.0,0.0,84,0.00,,,0.00,WUHU21623XXSP,2013-06-10 08:37:00,
2013-06-10 03:42:00,61.0,56.1,29.75,ESE,112,0.0,0.0,84,0.00,,,0.00,WUHU21623XXSP,2013-06-10 08:42:00,
2013-06-10 03:47:00,60.8,56.0,29.76,ESE,112,0.0,0.0,84,0.00,,,0.00,WUHU21623XXSP,2013-06-10 08:47:00,
2013-06-10 03:52:00,60.8,56.0,29.76,NNE,22,0.0,0.7,84,0.00,,,0.00,WUHU21623XXSP,2013-06-10 08:52:00,
2013-06-10 03:57:00,60.8,55.8,29.76,NNE,22,0.0,0.7,84,0.00,,,0.00,WUHU21623XXSP,2013-06-10 08:57:00,
2013-06-10 04:02:00,60.6,55.8,29.76,NNE,22,0.0,0.0,84,0.00,,,0.00,WUHU21623XXSP,2013-06-10 09:02:00,
2013-06-10 04:07:00,60.6,55.8,29.77,NNE,22,0.0,0.0,84,0.00,,,0.00,WUHU21623XXSP,2013-06-10 09:07:00,
2013-06-10 04:12:00,60.4,55.6,29.77,NNE,22,0.0,0.0,84,0.00,,,0.00,WUHU21623XXSP,2013-06-10 09:12:00,
2013-06-10 04:17:00,60.3,55.4,29.77,NNE,22,0.0,0.0,84,0.00,,,0.00,WUHU21623XXSP,2013-06-10 09:17:00,
2013-06-10 04:22:00,60.3,55.4,29.77,NNE,22,0.0,0.0,84,0.00,,,0.00,WUHU21623XXSP,2013-06-10 09:22:00,
2013-06-10 04:27:00,60.4,55.6,29.77,NNE,22,0.0,0.0,84,0.00,,,0.00,WUHU21623XXSP,2013-06-10 09:27:00,
2013-06-10 04:32:00,60.3,55.4,29.77,NNE,22,0.0,0.0,84,0.00,,,0.00,WUHU21623XXSP,2013-06-10 09:32:00,
2013-06-10 04:37:00,60.1,55.3,29.78,NNE,22,0.9,0.9,84,0.00,,,0.00,WUHU21623XXSP,2013-06-10 09:37:00,
2013-06-10 04:42:00,59.9,55.1,29.78,NNE,22,0.0,0.9,84,0.00,,,0.00,WUHU21623XXSP,2013-06-10 09:42:00,
2013-06-10 04:47:00,59.9,55.1,29.77,NE,45,1.8,1.8,84,0.00,,,0.00,WUHU21623XXSP,2013-06-10 09:47:00,
2013-06-10 04:52:00,59.9,55.1,29.78,North,0,0.7,1.8,84,0.00,,,0.00,WUHU21623XXSP,2013-06-10 09:52:00,
2013-06-10 04:57:00,59.9,55.4,29.77,North,0,0.0,0.7,85,0.00,,,0.00,WUHU21623XXSP,2013-06-10 09:57:00,
2013-06-10 05:02:00,59.7,55.2,29.78,NE,45,0.0,0.7,85,0.00,,,0.00,WUHU21623XXSP,2013-06-10 10:02:00,
2013-06-10 05:07:00,59.9,55.7,29.78,NE,45,0.4,0.7,86,0.00,,,0.00,WUHU21623XXSP,2013-06-10 10:07:00,
2013-06-10 05:12:00,59.7,55.5,29.78,East,90,2.5,2.5,86,0.00,,,0.00,WUHU21623XXSP,2013-06-10 10:12:00,
2013-06-10 05:17:00,59.7,55.5,29.78,NE,45,1.1,2.5,86,0.00,,,0.00,WUHU21623XXSP,2013-06-10 10:17:00,
2013-06-10 05:22:00,59.9,55.7,29.78,NE,45,0.0,1.1,86,0.00,,,0.00,WUHU21623XXSP,2013-06-10 10:22:00,
2013-06-10 05:27:00,59.9,55.7,29.78,ENE,67,0.0,0.7,86,0.00,,,0.00,WUHU21623XXSP,2013-06-10 10:27:00,
2013-06-10 05:32:00,59.9,55.7,29.78,NNE,22,0.0,2.0,86,0.00,,,0.00,WUHU21623XXSP,2013-06-10 10:32:00,
2013-06-10 05:37:00,59.9,55.7,29.78,NNE,22,0.0,2.0,86,0.00,,,0.00,WUHU21623XXSP,2013-06-10 10:37:00,
2013-06-10 05:42:00,59.9,55.7,29.78,NNE,22,0.0,1.3,86,0.00,,,0.00,WUHU21623XXSP,2013-06-10 10:42:00,
2013-06-10 05:47:00,59.9,55.7,29.78,East,90,0.0,0.0,86,0.00,,,0.00,WUHU21623XXSP,2013-06-10 10:47:00,
2013-06-10 05:52:00,59.9,55.7,29.78,ENE,67,0.0,0.0,86,0.00,,,0.00,WUHU21623XXSP,2013-06-10 10:52:00,
2013-06-10 05:57:00,59.9,55.7,29.78,ENE,67,0.0,0.0,86,0.00,,,0.00,WUHU21623XXSP,2013-06-10 10:57:00,
2013-06-10 06:02:00,59.9,55.7,29.78,SSE,157,0.0,1.6,86,0.00,,,0.00,WUHU21623XXSP,2013-06-10 11:02:00,
2013-06-10 06:07:00,60.1,56.2,29.78,ENE,67,1.3,1.8,87,0.00,,,0.00,WUHU21623XXSP,2013-06-10 11:07:00,
2013-06-10 06:12:00,60.1,56.2,29.78,ESE,112,0.0,1.8,87,0.00,,,0.00,WUHU21623XXSP,2013-06-10 11:12:00,
2013-06-10 06:17:00,60.3,56.4,29.78,SE,135,0.0,1.1,87,0.00,,,0.00,WUHU21623XXSP,2013-06-10 11:17:00,
2013-06-10 06:22:00,60.3,56.4,29.78,East,90,0.0,1.1,87,0.00,,,0.00,WUHU21623XXSP,2013-06-10 11:22:00,
2013-06-10 06:28:00,60.6,56.8,29.78,ESE,112,0.0,0.0,87,0.00,,,0.00,WUHU21623XXSP,2013-06-10 11:28:00,
2013-06-10 06:33:00,61.0,57.4,29.78,ESE,112,0.0,0.0,88,0.00,,,0.00,WUHU21623XXSP,2013-06-10 11:33:00,
2013-06-10 06:38:00,61.2,57.6,29.79,East,90,0.0,0.0,88,0.00,,,0.00,WUHU21623XXSP,2013-06-10 11:38:00,
2013-06-10 06:43:00,61.7,58.2,29.78,ENE,67,0.0,0.0,88,0.00,,,0.00,WUHU21623XXSP,2013-06-10 11:43:00,
2013-06-10 06:48:00,62.1,58.5,29.79,ENE,67,0.0,0.0,88,0.00,,,0.00,WUHU21623XXSP,2013-06-10 11:48:00,
2013-06-10 06:53:00,62.4,58.9,29.79,ENE,67,0.0,0.0,88,0.00,,,0.00,WUHU21623XXSP,2013-06-10 11:53:00,
2013-06-10 06:58:00,63.1,59.6,29.79,ENE,67,0.0,0.0,88,0.00,,,0.00,WUHU21623XXSP,2013-06-10 11:58:00,
2013-06-10 07:03:00,63.5,59.9,29.79,ENE,67,0.0,0.0,88,0.00,,,0.00,WUHU21623XXSP,2013-06-10 12:03:00,
2013-06-10 07:08:00,63.9,60.3,29.79,ENE,67,0.0,0.0,88,0.00,,,0.00,WUHU21623XXSP,2013-06-10 12:08:00,
2013-06-10 07:13:00,64.6,60.3,29.79,ENE,67,0.0,0.0,87,0.00,,,0.00,WUHU21623XXSP,2013-06-10 12:13:00,
2013-06-10 07:18:00,64.8,60.8,29.79,ENE,67,0.0,0.0,87,0.00,,,0.00,WUHU21623XXSP,2013-06-10 12:18:00,
2013-06-10 07:23:00,65.1,60.8,29.79,ENE,67,0.0,0.0,86,0.00,,,0.00,WUHU21623XXSP,2013-06-10 12:23:00,
2013-06-10 07:28:00,65.7,61.0,29.79,ESE,112,0.7,0.7,85,0.00,,,0.00,WUHU21623XXSP,2013-06-10 12:28:00,
2013-06-10 07:33:00,65.7,60.7,29.79,ESE,112,0.0,0.7,84,0.00,,,0.00,WUHU21623XXSP,2013-06-10 12:33:00,
2013-06-10 07:38:00,65.8,60.5,29.79,ESE,112,0.0,0.7,83,0.00,,,0.00,WUHU21623XXSP,2013-06-10 12:38:00,
2013-06-10 07:43:00,66.0,60.4,29.79,SSE,157,0.0,0.0,82,0.00,,,0.00,WUHU21623XXSP,2013-06-10 12:43:00,
2013-06-10 07:48:00,66.6,60.9,29.79,WSW,247,0.0,0.0,82,0.00,,,0.00,WUHU21623XXSP,2013-06-10 12:48:00,
2013-06-10 07:53:00,67.1,61.4,29.80,WNW,292,0.4,0.4,82,0.00,,,0.00,WUHU21623XXSP,2013-06-10 12:53:00,
2013-06-10 07:58:00,67.8,61.5,29.80,WNW,292,0.0,0.4,80,0.00,,,0.00,WUHU21623XXSP,2013-06-10 12:58:00,
2013-06-10 08:03:00,68.2,61.9,29.80,WNW,292,0.9,0.9,80,0.00,,,0.00,WUHU21623XXSP,2013-06-10 13:03:00,
2013-06-10 08:08:00,68.5,62.2,29.80,NNW,337,1.1,1.1,80,0.00,,,0.00,WUHU21623XXSP,2013-06-10 13:08:00,
2013-06-10 08:13:00,69.1,61.9,29.80,NNW,337,0.0,1.1,78,0.00,,,0.00,WUHU21623XXSP,2013-06-10 13:13:00,
2013-06-10 08:18:00,69.1,61.5,29.80,WNW,292,0.0,2.5,77,0.00,,,0.00,WUHU21623XXSP,2013-06-10 13:18:00,
2013-06-10 08:23:00,68.7,60.5,29.80,NNW,337,1.8,2.5,75,0.00,,,0.00,WUHU21623XXSP,2013-06-10 13:23:00,
2013-06-10 08:28:00,68.4,60.5,29.81,WNW,292,0.0,1.8,76,0.00,,,0.00,WUHU21623XXSP,2013-06-10 13:28:00,
2013-06-10 08:33:00,68.4,60.5,29.80,NW,315,0.0,0.0,76,0.00,,,0.00,WUHU21623XXSP,2013-06-10 13:33:00,
2013-06-10 08:38:00,68.4,60.5,29.81,NW,315,0.0,0.9,76,0.00,,,0.00,WUHU21623XXSP,2013-06-10 13:38:00,
2013-06-10 08:43:00,68.4,60.5,29.81,WNW,292,0.0,0.9,76,0.00,,,0.00,WUHU21623XXSP,2013-06-10 13:43:00,
2013-06-10 08:48:00,68.4,60.9,29.81,NW,315,0.0,0.0,77,0.00,,,0.00,WUHU21623XXSP,2013-06-10 13:48:00,
2013-06-10 08:53:00,68.2,60.7,29.81,WNW,292,0.9,0.9,77,0.00,,,0.00,WUHU21623XXSP,2013-06-10 13:53:00,
2013-06-10 08:58:00,68.2,60.4,29.81,NW,315,3.4,3.4,76,0.00,,,0.00,WUHU21623XXSP,2013-06-10 13:58:00,
2013-06-10 09:03:00,68.2,60.4,29.81,NW,315,4.0,4.0,76,0.00,,,0.00,WUHU21623XXSP,2013-06-10 14:03:00,
2013-06-10 09:08:00,68.9,61.4,29.81,NW,315,0.0,4.0,77,0.00,,,0.00,WUHU21623XXSP,2013-06-10 14:08:00,
2013-06-10 09:13:00,69.3,61.3,29.81,NW,315,0.0,2.5,76,0.00,,,0.00,WUHU21623XXSP,2013-06-10 14:13:00,
2013-06-10 09:14:00,69.3,61.3,29.81,NW,315,0.0,2.5,76,0.00,,,0.00,WUHU21623XXSP,2013-06-10 14:14:00,
2013-06-10 09:19:00,69.3,60.9,29.81,WNW,292,0.0,1.8,75,0.00,,,0.00,WUHU21623XXSP,2013-06-10 14:19:00,
2013-06-10 09:24:00,69.8,61.4,29.81,North,0,1.1,1.3,75,0.00,,,0.00,WUHU21623XXSP,2013-06-10 14:24:00,
2013-06-10 09:29:00,70.0,61.2,29.81,WNW,292,0.0,2.5,74,0.00,,,0.00,WUHU21623XXSP,2013-06-10 14:29:00,
2013-06-10 09:34:00,70.0,60.9,29.81,NW,315,0.0,2.5,73,0.00,,,0.00,WUHU21623XXSP,2013-06-10 14:34:00,
2013-06-10 09:39:00,69.8,60.7,29.81,NW,315,2.0,2.0,73,0.00,,,0.00,WUHU21623XXSP,2013-06-10 14:39:00,
2013-06-10 09:44:00,69.4,60.4,29.81,WNW,292,0.7,2.0,73,0.00,,,0.00,WUHU21623XXSP,2013-06-10 14:44:00,
2013-06-10 09:49:00,69.6,60.5,29.81,NW,315,0.0,1.6,73,0.00,,,0.00,WUHU21623XXSP,2013-06-10 14:49:00,
2013-06-10 09:54:00,69.6,60.5,29.81,WNW,292,0.0,1.6,73,0.00,,,0.00,WUHU21623XXSP,2013-06-10 14:54:00,
2013-06-10 09:59:00,69.4,60.4,29.81,NNW,337,1.8,4.7,73,0.00,,,0.00,WUHU21623XXSP,2013-06-10 14:59:00,
2013-06-10 10:04:00,69.6,60.5,29.81,NW,315,0.0,4.7,73,0.00,,,0.00,WUHU21623XXSP,2013-06-10 15:04:00,
2013-06-10 10:09:00,69.6,60.1,29.81,NW,315,0.7,0.7,72,0.00,,,0.00,WUHU21623XXSP,2013-06-10 15:09:00,
2013-06-10 10:14:00,69.6,60.1,29.81,North,0,0.0,1.8,72,0.00,,,0.00,WUHU21623XXSP,2013-06-10 15:14:00,
2013-06-10 10:19:00,70.0,60.9,29.81,North,0,0.0,1.8,73,0.00,,,0.00,WUHU21623XXSP,2013-06-10 15:19:00,
2013-06-10 10:24:00,70.0,60.9,29.81,North,0,0.0,0.0,73,0.00,,,0.00,WUHU21623XXSP,2013-06-10 15:24:00,
2013-06-10 10:29:00,70.0,60.5,29.81,ENE,67,0.0,0.0,72,0.00,,,0.00,WUHU21623XXSP,2013-06-10 15:29:00,
2013-06-10 10:34:00,70.2,60.7,29.80,SSW,202,0.0,0.0,72,0.00,,,0.00,WUHU21623XXSP,2013-06-10 15:34:00,
2013-06-10 10:39:00,70.5,61.0,29.81,North,0,0.0,0.0,72,0.00,,,0.00,WUHU21623XXSP,2013-06-10 15:39:00,
2013-06-10 10:44:00,71.1,61.2,29.81,WSW,247,0.0,0.0,71,0.00,,,0.00,WUHU21623XXSP,2013-06-10 15:44:00,
2013-06-10 10:49:00,71.2,61.4,29.81,SSW,202,0.0,0.0,70,0.00,,,0.00,WUHU21623XXSP,2013-06-10 15:49:00,
2013-06-10 10:54:00,71.2,61.0,29.81,West,270,0.4,0.9,70,0.00,,,0.00,WUHU21623XXSP,2013-06-10 15:54:00,
2013-06-10 10:59:00,71.4,60.7,29.81,WNW,292,1.6,1.6,69,0.00,,,0.00,WUHU21623XXSP,2013-06-10 15:59:00,
2013-06-10 11:04:00,71.2,60.5,29.81,WNW,292,0.0,1.8,69,0.00,,,0.00,WUHU21623XXSP,2013-06-10 16:04:00,
2013-06-10 11:09:00,71.6,60.9,29.81,NW,315,0.0,1.8,69,0.00,,,0.00,WUHU21623XXSP,2013-06-10 16:09:00,
2013-06-10 11:14:00,72.0,60.8,29.82,WNW,292,0.0,2.0,68,0.00,,,0.00,WUHU21623XXSP,2013-06-10 16:14:00,
2013-06-10 11:19:00,72.0,60.8,29.82,NW,315,0.0,2.0,68,0.00,,,0.00,WUHU21623XXSP,2013-06-10 16:19:00,
2013-06-10 11:24:00,72.1,60.6,29.82,NW,315,0.7,1.3,67,0.00,,,0.00,WUHU21623XXSP,2013-06-10 16:24:00,
2013-06-10 11:29:00,72.5,60.9,29.82,WSW,247,0.0,0.7,67,0.00,,,0.00,WUHU21623XXSP,2013-06-10 16:29:00,
2013-06-10 11:34:00,72.9,60.8,29.82,WSW,247,0.0,3.8,66,0.00,,,0.00,WUHU21623XXSP,2013-06-10 16:34:00,
2013-06-10 11:39:00,73.4,61.3,29.82,West,270,0.0,3.8,66,0.00,,,0.00,WUHU21623XXSP,2013-06-10 16:39:00,
2013-06-10 11:44:00,74.1,62.0,29.82,North,0,4.0,4.0,66,0.00,,,0.00,WUHU21623XXSP,2013-06-10 16:44:00,
2013-06-10 11:49:00,74.1,61.1,29.82,WNW,292,2.2,4.0,64,0.00,,,0.00,WUHU21623XXSP,2013-06-10 16:49:00,
2013-06-10 11:54:00,74.5,60.9,29.82,WSW,247,0.0,2.5,63,0.00,,,0.00,WUHU21623XXSP,2013-06-10 16:54:00,
2013-06-10 11:59:00,74.8,60.5,29.82,West,270,1.3,4.3,61,0.00,,,0.00,WUHU21623XXSP,2013-06-10 16:59:00,
2013-06-10 12:04:00,75.0,60.3,29.82,SE,135,0.0,4.3,60,0.00,,,0.00,WUHU21623XXSP,2013-06-10 17:04:00,
2013-06-10 12:09:00,74.8,60.1,29.82,NW,315,1.1,1.1,60,0.00,,,0.00,WUHU21623XXSP,2013-06-10 17:09:00,
2013-06-10 12:14:00,74.8,60.1,29.82,ESE,112,0.0,1.1,60,0.00,,,0.00,WUHU21623XXSP,2013-06-10 17:14:00,
2013-06-10 12:19:00,74.8,60.5,29.82,North,0,0.0,0.0,61,0.00,,,0.00,WUHU21623XXSP,2013-06-10 17:19:00,
2013-06-10 12:24:00,75.0,60.3,29.82,SW,225,1.1,1.1,60,0.00,,,0.00,WUHU21623XXSP,2013-06-10 17:24:00,
2013-06-10 12:29:00,75.6,60.8,29.82,NE,45,0.0,1.1,60,0.00,,,0.00,WUHU21623XXSP,2013-06-10 17:29:00,
2013-06-10 12:34:00,75.9,61.1,29.82,West,270,2.5,2.5,60,0.00,,,0.00,WUHU21623XXSP,2013-06-10 17:34:00,
2013-06-10 12:39:00,76.5,60.6,29.82,WSW,247,0.0,2.5,58,0.00,,,0.00,WUHU21623XXSP,2013-06-10 17:39:00,
2013-06-10 12:44:00,76.8,60.4,29.82,SW,225,0.4,2.5,57,0.00,,,0.00,WUHU21623XXSP,2013-06-10 17:44:00,
2013-06-10 12:49:00,77.4,60.9,29.82,WSW,247,0.0,5.4,57,0.00,,,0.00,WUHU21623XXSP,2013-06-10 17:49:00,
2013-06-10 12:54:00,77.4,59.4,29.82,WNW,292,0.0,5.4,54,0.00,,,0.00,WUHU21623XXSP,2013-06-10 17:54:00,
2013-06-10 12:59:00,77.7,59.7,29.82,SSW,202,0.0,0.9,54,0.00,,,0.00,WUHU21623XXSP,2013-06-10 17:59:00,
2013-06-10 13:04:00,77.9,58.3,29.82,WSW,247,1.1,1.1,51,0.00,,,0.00,WUHU21623XXSP,2013-06-10 18:04:00,
2013-06-10 13:09:00,78.6,59.0,29.82,WNW,292,5.8,5.8,51,0.00,,,0.00,WUHU21623XXSP,2013-06-10 18:09:00,
2013-06-10 13:14:00,78.8,59.2,29.82,WSW,247,2.2,5.8,51,0.00,,,0.00,WUHU21623XXSP,2013-06-10 18:14:00,
2013-06-10 13:19:00,79.0,59.3,29.82,NW,315,2.2,2.2,51,0.00,,,0.00,WUHU21623XXSP,2013-06-10 18:19:00,
2013-06-10 13:24:00,79.7,59.5,29.82,WNW,292,3.6,3.6,50,0.00,,,0.00,WUHU21623XXSP,2013-06-10 18:24:00,
2013-06-10 13:29:00,79.9,59.0,29.82,NNW,337,1.8,3.6,49,0.00,,,0.00,WUHU21623XXSP,2013-06-10 18:29:00,
2013-06-10 13:34:00,79.2,58.4,29.82,WNW,292,0.0,1.8,49,0.00,,,0.00,WUHU21623XXSP,2013-06-10 18:34:00,
2013-06-10 13:39:00,79.9,60.1,29.82,NW,315,2.5,2.5,51,0.00,,,0.00,WUHU21623XXSP,2013-06-10 18:39:00,
2013-06-10 13:44:00,79.9,59.6,29.82,SSE,157,0.0,2.5,50,0.00,,,0.00,WUHU21623XXSP,2013-06-10 18:44:00,
2013-06-10 13:49:00,79.9,60.1,29.83,NNW,337,2.2,2.2,51,0.00,,,0.00,WUHU21623XXSP,2013-06-10 18:49:00,
2013-06-10 13:54:00,80.2,59.9,29.82,SW,225,1.6,2.2,50,0.00,,,0.00,WUHU21623XXSP,2013-06-10 18:54:00,
2013-06-10 13:59:00,80.2,59.9,29.82,NW,315,3.1,3.1,50,0.00,,,0.00,WUHU21623XXSP,2013-06-10 18:59:00,
2013-06-10 14:04:00,80.4,60.1,29.82,North,0,0.0,3.1,50,0.00,,,0.00,WUHU21623XXSP,2013-06-10 19:04:00,
2013-06-10 14:09:00,80.4,59.5,29.82,SW,225,0.0,8.1,49,0.00,,,0.00,WUHU21623XXSP,2013-06-10 19:09:00,
2013-06-10 14:14:00,80.1,59.2,29.83,SSE,157,3.4,8.1,49,0.00,,,0.00,WUHU21623XXSP,2013-06-10 19:14:00,
2013-06-10 14:19:00,80.6,59.6,29.82,West,270,0.0,3.4,49,0.00,,,0.00,WUHU21623XXSP,2013-06-10 19:19:00,
2013-06-10 14:24:00,81.3,60.3,29.82,NW,315,0.9,3.1,49,0.00,,,0.00,WUHU21623XXSP,2013-06-10 19:24:00,
2013-06-10 14:29:00,81.7,60.0,29.82,South,180,0.0,3.1,48,0.00,,,0.00,WUHU21623XXSP,2013-06-10 19:29:00,
2013-06-10 14:34:00,81.9,59.6,29.81,NW,315,7.4,7.4,47,0.00,,,0.00,WUHU21623XXSP,2013-06-10 19:34:00,
2013-06-10 14:39:00,81.9,58.3,29.81,WSW,247,0.0,7.4,45,0.00,,,0.00,WUHU21623XXSP,2013-06-10 19:39:00,
2013-06-10 14:44:00,81.9,58.3,29.81,SSW,202,0.9,1.8,45,0.00,,,0.00,WUHU21623XXSP,2013-06-10 19:44:00,
2013-06-10 14:49:00,82.0,58.5,29.81,SW,225,0.0,1.8,45,0.00,,,0.00,WUHU21623XXSP,2013-06-10 19:49:00,
2013-06-10 14:54:00,82.2,58.7,29.81,NW,315,0.0,2.2,45,0.00,,,0.00,WUHU21623XXSP,2013-06-10 19:54:00,
2013-06-10 14:59:00,82.6,59.0,29.81,SSE,157,0.0,6.9,45,0.00,,,0.00,WUHU21623XXSP,2013-06-10 19:59:00,
2013-06-10 15:04:00,82.6,58.4,29.82,WNW,292,6.0,6.9,44,0.00,,,0.00,WUHU21623XXSP,2013-06-10 20:04:00,
2013-06-10 15:09:00,82.8,58.5,29.81,WSW,247,0.0,6.0,44,0.00,,,0.00,WUHU21623XXSP,2013-06-10 20:09:00,
2013-06-10 15:14:00,82.6,58.4,29.82,WNW,292,1.6,1.6,44,0.00,,,0.00,WUHU21623XXSP,2013-06-10 20:14:00,
2013-06-10 15:19:00,82.8,58.5,29.82,NNW,337,0.0,3.4,44,0.00,,,0.00,WUHU21623XXSP,2013-06-10 20:19:00,
2013-06-10 15:24:00,82.8,58.5,29.81,NW,315,2.5,3.4,44,0.00,,,0.00,WUHU21623XXSP,2013-06-10 20:24:00,
2013-06-10 15:29:00,82.8,58.5,29.81,NW,315,0.0,2.5,44,0.00,,,0.00,WUHU21623XXSP,2013-06-10 20:29:00,
2013-06-10 15:34:00,82.8,58.5,29.81,West,270,4.9,4.9,44,0.00,,,0.00,WUHU21623XXSP,2013-06-10 20:34:00,
2013-06-10 15:39:00,82.4,57.6,29.81,NW,315,5.8,5.8,43,0.00,,,0.00,WUHU21623XXSP,2013-06-10 20:39:00,
2013-06-10 15:44:00,81.9,57.1,29.82,SW,225,0.0,6.3,43,0.00,,,0.00,WUHU21623XXSP,2013-06-10 20:44:00,
2013-06-10 15:49:00,81.9,57.7,29.81,WSW,247,0.0,6.3,44,0.00,,,0.00,WUHU21623XXSP,2013-06-10 20:49:00,
2013-06-10 15:54:00,81.3,57.4,29.81,WNW,292,3.8,3.8,44,0.00,,,0.00,WUHU21623XXSP,2013-06-10 20:54:00,
2013-06-10 15:59:00,81.0,56.9,29.81,WNW,292,3.1,3.8,44,0.00,,,0.00,WUHU21623XXSP,2013-06-10 20:59:00,
2013-06-10 16:04:00,80.2,56.9,29.81,NNE,22,0.0,3.1,45,0.00,,,0.00,WUHU21623XXSP,2013-06-10 21:04:00,
2013-06-10 16:09:00,80.2,56.9,29.82,SSE,157,0.0,1.8,45,0.00,,,0.00,WUHU21623XXSP,2013-06-10 21:09:00,
2013-06-10 16:14:00,79.9,56.6,29.82,West,270,6.3,6.3,45,0.00,,,0.00,WUHU21623XXSP,2013-06-10 21:14:00,
2013-06-10 16:19:00,79.5,56.4,29.82,NW,315,6.9,6.9,46,0.00,,,0.00,WUHU21623XXSP,2013-06-10 21:19:00,
2013-06-10 16:24:00,79.5,57.5,29.82,NW,315,4.9,6.9,47,0.00,,,0.00,WUHU21623XXSP,2013-06-10 21:24:00,
2013-06-10 16:29:00,79.3,56.7,29.82,WSW,247,0.9,4.9,46,0.00,,,0.00,WUHU21623XXSP,2013-06-10 21:29:00,
2013-06-10 16:34:00,79.2,56.5,29.82,West,270,0.0,3.4,46,0.00,,,0.00,WUHU21623XXSP,2013-06-10 21:34:00,
2013-06-10 16:39:00,79.2,55.9,29.82,SW,225,4.0,4.0,45,0.00,,,0.00,WUHU21623XXSP,2013-06-10 21:39:00,
2013-06-10 16:44:00,79.0,54.5,29.82,NW,315,3.1,4.0,43,0.00,,,0.00,WUHU21623XXSP,2013-06-10 21:44:00,
2013-06-10 16:49:00,79.0,54.5,29.82,West,270,4.9,4.9,43,0.00,,,0.00,WUHU21623XXSP,2013-06-10 21:49:00,
2013-06-10 16:54:00,79.0,55.7,29.82,NNW,337,5.8,5.8,45,0.00,,,0.00,WUHU21623XXSP,2013-06-10 21:54:00,
2013-06-10 16:59:00,79.2,54.7,29.82,West,270,0.9,5.8,43,0.00,,,0.00,WUHU21623XXSP,2013-06-10 21:59:00,
2013-06-10 17:04:00,79.2,55.3,29.82,WSW,247,0.0,5.4,44,0.00,,,0.00,WUHU21623XXSP,2013-06-10 22:04:00,
2013-06-10 17:09:00,79.0,55.1,29.82,WNW,292,6.3,6.3,44,0.00,,,0.00,WUHU21623XXSP,2013-06-10 22:09:00,
2013-06-10 17:14:00,79.0,55.7,29.82,South,180,0.4,6.3,45,0.00,,,0.00,WUHU21623XXSP,2013-06-10 22:14:00,
2013-06-10 17:19:00,79.0,55.7,29.82,WSW,247,0.0,2.7,45,0.00,,,0.00,WUHU21623XXSP,2013-06-10 22:19:00,
2013-06-10 17:24:00,79.0,56.4,29.82,West,270,0.0,2.5,46,0.00,,,0.00,WUHU21623XXSP,2013-06-10 22:24:00,
2013-06-10 17:29:00,78.6,56.6,29.82,West,270,6.3,6.3,47,0.00,,,0.00,WUHU21623XXSP,2013-06-10 22:29:00,
2013-06-10 17:34:00,78.6,56.6,29.83,West,270,1.3,6.3,47,0.00,,,0.00,WUHU21623XXSP,2013-06-10 22:34:00,
2013-06-10 17:39:00,78.4,56.5,29.82,WSW,247,1.3,1.3,47,0.00,,,0.00,WUHU21623XXSP,2013-06-10 22:39:00,
2013-06-10 17:44:00,78.4,57.1,29.82,South,180,0.9,7.8,48,0.00,,,0.00,WUHU21623XXSP,2013-06-10 22:44:00,
2013-06-10 17:49:00,78.3,56.3,29.82,SSW,202,0.0,7.8,47,0.00,,,0.00,WUHU21623XXSP,2013-06-10 22:49:00,
2013-06-10 17:54:00,78.1,56.8,29.82,NW,315,0.9,1.3,48,0.00,,,0.00,WUHU21623XXSP,2013-06-10 22:54:00,
2013-06-10 17:59:00,78.1,56.8,29.83,WNW,292,0.0,3.8,48,0.00,,,0.00,WUHU21623XXSP,2013-06-10 22:59:00,
2013-06-10 18:04:00,77.9,57.2,29.83,West,270,0.0,3.8,49,0.00,,,0.00,WUHU21623XXSP,2013-06-10 23:04:00,
2013-06-10 18:09:00,77.9,57.2,29.83,WSW,247,0.0,2.5,49,0.00,,,0.00,WUHU21623XXSP,2013-06-10 23:09:00,
2013-06-10 18:14:00,77.9,57.2,29.83,WNW,292,0.0,1.8,49,0.00,,,0.00,WUHU21623XXSP,2013-06-10 23:14:00,
2013-06-10 18:19:00,77.9,57.2,29.83,West,270,0.7,0.7,49,0.00,,,0.00,WUHU21623XXSP,2013-06-10 23:19:00,
2013-06-10 18:24:00,77.9,57.2,29.83,NW,315,1.8,1.8,49,0.00,,,0.00,WUHU21623XXSP,2013-06-10 23:24:00,
2013-06-10 18:29:00,77.9,57.8,29.83,NW,315,4.0,4.0,50,0.00,,,0.00,WUHU21623XXSP,2013-06-10 23:29:00,
2013-06-10 18:34:00,77.9,57.2,29.83,NE,45,0.0,4.0,49,0.00,,,0.00,WUHU21623XXSP,2013-06-10 23:34:00,
2013-06-10 18:39:00,77.7,57.7,29.83,WNW,292,1.6,4.0,50,0.00,,,0.00,WUHU21623XXSP,2013-06-10 23:39:00,
2013-06-10 18:44:00,77.7,58.2,29.83,NW,315,2.0,4.0,51,0.00,,,0.00,WUHU21623XXSP,2013-06-10 23:44:00,
2013-06-10 18:49:00,77.5,58.0,29.83,WNW,292,0.0,2.5,51,0.00,,,0.00,WUHU21623XXSP,2013-06-10 23:49:00,
2013-06-10 18:54:00,77.4,58.4,29.83,NNW,337,0.0,3.4,52,0.00,,,0.00,WUHU21623XXSP,2013-06-10 23:54:00,
2013-06-10 18:59:00,77.2,58.2,29.83,West,270,0.0,3.4,52,0.00,,,0.00,WUHU21623XXSP,2013-06-10 23:59:00,
2013-06-10 19:04:00,77.0,58.0,29.83,NW,315,5.8,5.8,52,0.00,,,0.00,WUHU21623XXSP,2013-06-11 00:04:00,
2013-06-10 19:09:00,76.6,57.7,29.83,West,270,3.6,5.8,52,0.00,,,0.00,WUHU21623XXSP,2013-06-11 00:09:00,
2013-06-10 19:14:00,76.5,57.5,29.83,WSW,247,0.0,3.6,52,0.00,,,0.00,WUHU21623XXSP,2013-06-11 00:14:00,
2013-06-10 19:19:00,76.5,58.0,29.83,West,270,4.7,4.7,53,0.00,,,0.00,WUHU21623XXSP,2013-06-11 00:19:00,
2013-06-10 19:24:00,76.1,57.7,29.83,NNW,337,2.7,4.7,53,0.00,,,0.00,WUHU21623XXSP,2013-06-11 00:24:00,
2013-06-10 19:29:00,75.9,58.1,29.83,West,270,1.6,6.0,54,0.00,,,0.00,WUHU21623XXSP,2013-06-11 00:29:00,
2013-06-10 19:34:00,75.6,57.7,29.83,NNW,337,0.0,6.0,54,0.00,,,0.00,WUHU21623XXSP,2013-06-11 00:34:00,
2013-06-10 19:39:00,75.2,57.4,29.83,WSW,247,0.0,5.8,54,0.00,,,0.00,WUHU21623XXSP,2013-06-11 00:39:00,
2013-06-10 19:44:00,75.0,57.2,29.83,NW,315,4.3,5.8,54,0.00,,,0.00,WUHU21623XXSP,2013-06-11 00:44:00,
2013-06-10 19:49:00,74.8,57.1,29.83,NNW,337,3.4,4.3,54,0.00,,,0.00,WUHU21623XXSP,2013-06-11 00:49:00,
2013-06-10 19:54:00,74.5,57.2,29.83,WNW,292,0.0,3.4,55,0.00,,,0.00,WUHU21623XXSP,2013-06-11 00:54:00,
2013-06-10 19:59:00,74.3,57.0,29.83,NW,315,0.0,2.7,55,0.00,,,0.00,WUHU21623XXSP,2013-06-11 00:59:00,
2013-06-10 20:04:00,74.1,57.3,29.83,West,270,0.0,0.0,56,0.00,,,0.00,WUHU21623XXSP,2013-06-11 01:04:00,
2013-06-10 20:09:00,74.1,57.3,29.83,West,270,1.1,1.1,56,0.00,,,0.00,WUHU21623XXSP,2013-06-11 01:09:00,
2013-06-10 20:14:00,73.8,57.5,29.84,WNW,292,0.0,1.1,57,0.00,,,0.00,WUHU21623XXSP,2013-06-11 01:14:00,
2013-06-10 20:19:00,73.6,57.3,29.83,West,270,0.0,0.9,57,0.00,,,0.00,WUHU21623XXSP,2013-06-11 01:19:00,
2013-06-10 20:24:00,73.4,57.1,29.83,West,270,0.0,0.9,57,0.00,,,0.00,WUHU21623XXSP,2013-06-11 01:24:00,
2013-06-10 20:29:00,73.2,57.0,29.83,NW,315,0.0,0.0,57,0.00,,,0.00,WUHU21623XXSP,2013-06-11 01:29:00,
2013-06-10 20:34:00,73.0,57.3,29.84,WNW,292,0.0,0.9,58,0.00,,,0.00,WUHU21623XXSP,2013-06-11 01:34:00,
2013-06-10 20:39:00,72.9,57.1,29.84,West,270,0.0,0.9,58,0.00,,,0.00,WUHU21623XXSP,2013-06-11 01:39:00,
2013-06-10 20:44:00,72.5,57.0,29.84,West,270,0.0,0.0,59,0.00,,,0.00,WUHU21623XXSP,2013-06-11 01:44:00,
2013-06-10 20:49:00,72.1,57.0,29.84,West,270,0.0,0.9,59,0.00,,,0.00,WUHU21623XXSP,2013-06-11 01:49:00,
2013-06-10 20:54:00,72.1,57.0,29.84,WNW,292,0.0,0.9,59,0.00,,,0.00,WUHU21623XXSP,2013-06-11 01:54:00,
2013-06-10 20:59:00,72.0,56.8,29.85,West,270,0.0,0.0,59,0.00,,,0.00,WUHU21623XXSP,2013-06-11 01:59:00,
2013-06-10 21:04:00,71.8,57.2,29.85,West,270,0.0,0.0,60,0.00,,,0.00,WUHU21623XXSP,2013-06-11 02:04:00,
2013-06-10 21:09:00,71.6,57.0,29.85,West,270,0.0,0.0,60,0.00,,,0.00,WUHU21623XXSP,2013-06-11 02:09:00,
2013-06-10 21:14:00,71.4,56.9,29.85,WSW,247,0.0,0.0,60,0.00,,,0.00,WUHU21623XXSP,2013-06-11 02:14:00,
2013-06-10 21:19:00,71.2,57.1,29.85,West,270,0.0,0.0,61,0.00,,,0.00,WUHU21623XXSP,2013-06-11 02:19:00,
2013-06-10 21:24:00,71.1,56.9,29.85,NW,315,0.0,0.0,61,0.00,,,0.00,WUHU21623XXSP,2013-06-11 02:24:00,
2013-06-10 21:29:00,70.9,56.8,29.85,NW,315,0.0,0.0,61,0.00,,,0.00,WUHU21623XXSP,2013-06-11 02:29:00,
2013-06-10 21:34:00,70.7,56.6,29.85,NW,315,0.0,0.0,61,0.00,,,0.00,WUHU21623XXSP,2013-06-11 02:34:00,
2013-06-10 21:39:00,70.5,56.5,29.86,NW,315,0.0,0.0,61,0.00,,,0.00,WUHU21623XXSP,2013-06-11 02:39:00,
2013-06-10 21:44:00,70.5,56.9,29.86,NW,315,0.0,0.0,62,0.00,,,0.00,WUHU21623XXSP,2013-06-11 02:44:00,
2013-06-10 21:49:00,70.3,57.1,29.86,NW,315,0.0,0.0,63,0.00,,,0.00,WUHU21623XXSP,2013-06-11 02:49:00,
2013-06-10 21:54:00,70.2,57.0,29.86,NW,315,0.0,0.0,63,0.00,,,0.00,WUHU21623XXSP,2013-06-11 02:54:00,
2013-06-10 21:59:00,70.0,56.8,29.86,NW,315,0.0,0.0,63,0.00,,,0.00,WUHU21623XXSP,2013-06-11 02:59:00,
2013-06-10 22:04:00,70.0,56.8,29.86,West,270,0.0,0.0,63,0.00,,,0.00,WUHU21623XXSP,2013-06-11 03:04:00,
2013-06-10 22:09:00,69.8,56.6,29.86,WNW,292,0.0,0.0,63,0.00,,,0.00,WUHU21623XXSP,2013-06-11 03:09:00,
2013-06-10 22:14:00,69.6,56.5,29.86,NW,315,0.0,0.0,63,0.00,,,0.00,WUHU21623XXSP,2013-06-11 03:14:00,
2013-06-10 22:19:00,69.4,56.3,29.87,WNW,292,0.0,0.0,63,0.00,,,0.00,WUHU21623XXSP,2013-06-11 03:19:00,
2013-06-10 22:24:00,69.4,56.3,29.87,West,270,0.0,0.0,63,0.00,,,0.00,WUHU21623XXSP,2013-06-11 03:24:00,
2013-06-10 22:29:00,69.3,56.1,29.87,West,270,0.0,0.0,63,0.00,,,0.00,WUHU21623XXSP,2013-06-11 03:29:00,
2013-06-10 22:34:00,69.3,56.5,29.87,West,270,0.0,0.0,64,0.00,,,0.00,WUHU21623XXSP,2013-06-11 03:34:00,
2013-06-10 22:39:00,69.1,56.4,29.87,West,270,0.0,0.0,64,0.00,,,0.00,WUHU21623XXSP,2013-06-11 03:39:00,
2013-06-10 22:44:00,68.9,56.2,29.87,West,270,0.0,0.0,64,0.00,,,0.00,WUHU21623XXSP,2013-06-11 03:44:00,
2013-06-10 22:49:00,68.9,56.2,29.87,West,270,0.0,0.0,64,0.00,,,0.00,WUHU21623XXSP,2013-06-11 03:49:00,
2013-06-10 22:54:00,68.7,56.4,29.87,West,270,0.0,0.0,65,0.00,,,0.00,WUHU21623XXSP,2013-06-11 03:54:00,
2013-06-10 22:59:00,68.7,56.9,29.88,West,270,0.0,0.0,66,0.00,,,0.00,WUHU21623XXSP,2013-06-11 03:59:00,
2013-06-10 23:01:00,68.5,56.7,29.87,West,270,0.0,0.0,66,0.00,,,0.00,WUHU21623XXSP,2013-06-11 04:01:00,
2013-06-10 23:02:00,68.7,56.9,29.87,West,270,0.0,0.0,66,0.00,,,0.00,WUHU21623XXSP,2013-06-11 04:02:00,
2013-06-10 23:07:00,68.4,56.5,29.88,West,270,0.0,0.0,66,0.00,,,0.00,WUHU21623XXSP,2013-06-11 04:07:00,
2013-06-10 23:12:00,68.4,56.9,29.88,West,270,0.0,0.0,67,0.00,,,0.00,WUHU21623XXSP,2013-06-11 04:12:00,
2013-06-10 23:17:00,68.2,56.8,29.88,West,270,0.0,0.0,67,0.00,,,0.00,WUHU21623XXSP,2013-06-11 04:17:00,
2013-06-10 23:22:00,68.2,56.8,29.88,West,270,0.0,0.0,67,0.00,,,0.00,WUHU21623XXSP,2013-06-11 04:22:00,
2013-06-10 23:27:00,68.2,56.8,29.88,West,270,0.0,0.0,67,0.00,,,0.00,WUHU21623XXSP,2013-06-11 04:27:00,
2013-06-10 23:32:00,67.8,56.4,29.88,West,270,0.0,0.0,67,0.00,,,0.00,WUHU21623XXSP,2013-06-11 04:32:00,
2013-06-10 23:37:00,67.6,56.3,29.88,West,270,0.0,0.0,67,0.00,,,0.00,WUHU21623XXSP,2013-06-11 04:37:00,
2013-06-10 23:42:00,67.8,56.4,29.88,West,270,0.0,0.0,67,0.00,,,0.00,WUHU21623XXSP,2013-06-11 04:42:00,
2013-06-10 23:47:00,67.6,56.7,29.88,West,270,0.0,0.0,68,0.00,,,0.00,WUHU21623XXSP,2013-06-11 04:47:00,
2013-06-10 23:52:00,67.5,56.5,29.88,West,270,0.0,0.0,68,0.00,,,0.00,WUHU21623XXSP,2013-06-11 04:52:00,
2013-06-10 23:57:00,67.5,56.5,29.88,West,270,0.0,0.0,68,0.00,,,0.00,WUHU21623XXSP,2013-06-11 04:57:00,